Index of /20260424/WXO-DD/model_gdps/15km/12/036
Name Last modified Size Description
Parent Directory -
20260424T12Z_MSC_GDPS_AbsoluteVorticity_IsbL-0200_LatLon0.15_PT036H.grib2 2026-04-24 16:04 1.2M
20260424T12Z_MSC_GDPS_AbsoluteVorticity_IsbL-0250_LatLon0.15_PT036H.grib2 2026-04-24 16:04 1.3M
20260424T12Z_MSC_GDPS_AbsoluteVorticity_IsbL-0500_LatLon0.15_PT036H.grib2 2026-04-24 16:04 1.5M
20260424T12Z_MSC_GDPS_AbsoluteVorticity_IsbL-0700_LatLon0.15_PT036H.grib2 2026-04-24 16:04 1.6M
20260424T12Z_MSC_GDPS_AbsoluteVorticity_IsbL-0850_LatLon0.15_PT036H.grib2 2026-04-24 16:04 1.6M
20260424T12Z_MSC_GDPS_AirTemp-Max_AGL-2m_LatLon0.15_PT036H.grib2 2026-04-24 16:04 748K
20260424T12Z_MSC_GDPS_AirTemp-Min_AGL-2m_LatLon0.15_PT036H.grib2 2026-04-24 16:04 801K
20260424T12Z_MSC_GDPS_AirTemp_AGL-120m_LatLon0.15_PT036H.grib2 2026-04-24 16:04 910K
20260424T12Z_MSC_GDPS_AirTemp_AGL-2m_LatLon0.15_PT036H.grib2 2026-04-24 16:04 1.0M
20260424T12Z_MSC_GDPS_AirTemp_AGL-40m_LatLon0.15_PT036H.grib2 2026-04-24 16:04 818K
20260424T12Z_MSC_GDPS_AirTemp_AGL-80m_LatLon0.15_PT036H.grib2 2026-04-24 16:04 922K
20260424T12Z_MSC_GDPS_AirTemp_IsbL-0001_LatLon0.15_PT036H.grib2 2026-04-24 16:04 708K
20260424T12Z_MSC_GDPS_AirTemp_IsbL-0005_LatLon0.15_PT036H.grib2 2026-04-24 16:04 693K
20260424T12Z_MSC_GDPS_AirTemp_IsbL-0010_LatLon0.15_PT036H.grib2 2026-04-24 16:04 763K
20260424T12Z_MSC_GDPS_AirTemp_IsbL-0020_LatLon0.15_PT036H.grib2 2026-04-24 16:04 703K
20260424T12Z_MSC_GDPS_AirTemp_IsbL-0030_LatLon0.15_PT036H.grib2 2026-04-24 16:04 755K
20260424T12Z_MSC_GDPS_AirTemp_IsbL-0050_LatLon0.15_PT036H.grib2 2026-04-24 16:04 812K
20260424T12Z_MSC_GDPS_AirTemp_IsbL-0100_LatLon0.15_PT036H.grib2 2026-04-24 16:04 947K
20260424T12Z_MSC_GDPS_AirTemp_IsbL-0150_LatLon0.15_PT036H.grib2 2026-04-24 16:04 966K
20260424T12Z_MSC_GDPS_AirTemp_IsbL-0175_LatLon0.15_PT036H.grib2 2026-04-24 16:04 954K
20260424T12Z_MSC_GDPS_AirTemp_IsbL-0200_LatLon0.15_PT036H.grib2 2026-04-24 16:04 966K
20260424T12Z_MSC_GDPS_AirTemp_IsbL-0225_LatLon0.15_PT036H.grib2 2026-04-24 16:04 973K
20260424T12Z_MSC_GDPS_AirTemp_IsbL-0250_LatLon0.15_PT036H.grib2 2026-04-24 16:04 1.0M
20260424T12Z_MSC_GDPS_AirTemp_IsbL-0275_LatLon0.15_PT036H.grib2 2026-04-24 16:04 1.0M
20260424T12Z_MSC_GDPS_AirTemp_IsbL-0300_LatLon0.15_PT036H.grib2 2026-04-24 16:04 1.0M
20260424T12Z_MSC_GDPS_AirTemp_IsbL-0350_LatLon0.15_PT036H.grib2 2026-04-24 16:04 929K
20260424T12Z_MSC_GDPS_AirTemp_IsbL-0400_LatLon0.15_PT036H.grib2 2026-04-24 16:04 938K
20260424T12Z_MSC_GDPS_AirTemp_IsbL-0450_LatLon0.15_PT036H.grib2 2026-04-24 16:04 962K
20260424T12Z_MSC_GDPS_AirTemp_IsbL-0500_LatLon0.15_PT036H.grib2 2026-04-24 16:04 1.0M
20260424T12Z_MSC_GDPS_AirTemp_IsbL-0550_LatLon0.15_PT036H.grib2 2026-04-24 16:04 806K
20260424T12Z_MSC_GDPS_AirTemp_IsbL-0600_LatLon0.15_PT036H.grib2 2026-04-24 16:04 895K
20260424T12Z_MSC_GDPS_AirTemp_IsbL-0650_LatLon0.15_PT036H.grib2 2026-04-24 16:04 918K
20260424T12Z_MSC_GDPS_AirTemp_IsbL-0700_LatLon0.15_PT036H.grib2 2026-04-24 16:04 944K
20260424T12Z_MSC_GDPS_AirTemp_IsbL-0750_LatLon0.15_PT036H.grib2 2026-04-24 16:04 1.0M
20260424T12Z_MSC_GDPS_AirTemp_IsbL-0800_LatLon0.15_PT036H.grib2 2026-04-24 16:04 1.1M
20260424T12Z_MSC_GDPS_AirTemp_IsbL-0850_LatLon0.15_PT036H.grib2 2026-04-24 16:04 1.1M
20260424T12Z_MSC_GDPS_AirTemp_IsbL-0875_LatLon0.15_PT036H.grib2 2026-04-24 16:04 1.1M
20260424T12Z_MSC_GDPS_AirTemp_IsbL-0900_LatLon0.15_PT036H.grib2 2026-04-24 16:04 1.1M
20260424T12Z_MSC_GDPS_AirTemp_IsbL-0925_LatLon0.15_PT036H.grib2 2026-04-24 16:04 1.1M
20260424T12Z_MSC_GDPS_AirTemp_IsbL-0950_LatLon0.15_PT036H.grib2 2026-04-24 16:04 1.1M
20260424T12Z_MSC_GDPS_AirTemp_IsbL-0970_LatLon0.15_PT036H.grib2 2026-04-24 16:04 1.2M
20260424T12Z_MSC_GDPS_AirTemp_IsbL-0985_LatLon0.15_PT036H.grib2 2026-04-24 16:04 1.1M
20260424T12Z_MSC_GDPS_AirTemp_IsbL-1000_LatLon0.15_PT036H.grib2 2026-04-24 16:04 1.1M
20260424T12Z_MSC_GDPS_AirTemp_IsbL-1015_LatLon0.15_PT036H.grib2 2026-04-24 16:04 1.1M
20260424T12Z_MSC_GDPS_Albedo_Sfc_LatLon0.15_PT036H.grib2 2026-04-24 16:04 247K
20260424T12Z_MSC_GDPS_CAPE_Sfc_LatLon0.15_PT036H.grib2 2026-04-24 16:04 3.9M
20260424T12Z_MSC_GDPS_CIN_Sfc_LatLon0.15_PT036H.grib2 2026-04-24 16:04 2.8M
20260424T12Z_MSC_GDPS_CloudWater_EAtm_LatLon0.15_PT036H.grib2 2026-04-24 16:04 533K
20260424T12Z_MSC_GDPS_ConvectivePrecip-Accum_Sfc_LatLon0.15_PT036H.grib2 2026-04-24 16:04 2.6M
20260424T12Z_MSC_GDPS_DewPointDepression_AGL-2m_LatLon0.15_PT036H.grib2 2026-04-24 16:04 754K
20260424T12Z_MSC_GDPS_DewPointDepression_IsbL-0010_LatLon0.15_PT036H.grib2 2026-04-24 16:04 56K
20260424T12Z_MSC_GDPS_DewPointDepression_IsbL-0020_LatLon0.15_PT036H.grib2 2026-04-24 16:04 75K
20260424T12Z_MSC_GDPS_DewPointDepression_IsbL-0030_LatLon0.15_PT036H.grib2 2026-04-24 16:04 82K
20260424T12Z_MSC_GDPS_DewPointDepression_IsbL-0050_LatLon0.15_PT036H.grib2 2026-04-24 16:04 363K
20260424T12Z_MSC_GDPS_DewPointDepression_IsbL-0100_LatLon0.15_PT036H.grib2 2026-04-24 16:04 396K
20260424T12Z_MSC_GDPS_DewPointDepression_IsbL-0150_LatLon0.15_PT036H.grib2 2026-04-24 16:04 466K
20260424T12Z_MSC_GDPS_DewPointDepression_IsbL-0175_LatLon0.15_PT036H.grib2 2026-04-24 16:04 555K
20260424T12Z_MSC_GDPS_DewPointDepression_IsbL-0200_LatLon0.15_PT036H.grib2 2026-04-24 16:04 645K
20260424T12Z_MSC_GDPS_DewPointDepression_IsbL-0225_LatLon0.15_PT036H.grib2 2026-04-24 16:04 756K
20260424T12Z_MSC_GDPS_DewPointDepression_IsbL-0250_LatLon0.15_PT036H.grib2 2026-04-24 16:04 857K
20260424T12Z_MSC_GDPS_DewPointDepression_IsbL-0275_LatLon0.15_PT036H.grib2 2026-04-24 16:04 895K
20260424T12Z_MSC_GDPS_DewPointDepression_IsbL-0300_LatLon0.15_PT036H.grib2 2026-04-24 16:04 943K
20260424T12Z_MSC_GDPS_DewPointDepression_IsbL-0350_LatLon0.15_PT036H.grib2 2026-04-24 16:04 971K
20260424T12Z_MSC_GDPS_DewPointDepression_IsbL-0400_LatLon0.15_PT036H.grib2 2026-04-24 16:04 1.0M
20260424T12Z_MSC_GDPS_DewPointDepression_IsbL-0450_LatLon0.15_PT036H.grib2 2026-04-24 16:04 1.0M
20260424T12Z_MSC_GDPS_DewPointDepression_IsbL-0500_LatLon0.15_PT036H.grib2 2026-04-24 16:04 1.0M
20260424T12Z_MSC_GDPS_DewPointDepression_IsbL-0550_LatLon0.15_PT036H.grib2 2026-04-24 16:04 1.0M
20260424T12Z_MSC_GDPS_DewPointDepression_IsbL-0600_LatLon0.15_PT036H.grib2 2026-04-24 16:04 1.1M
20260424T12Z_MSC_GDPS_DewPointDepression_IsbL-0650_LatLon0.15_PT036H.grib2 2026-04-24 16:04 1.1M
20260424T12Z_MSC_GDPS_DewPointDepression_IsbL-0700_LatLon0.15_PT036H.grib2 2026-04-24 16:04 1.1M
20260424T12Z_MSC_GDPS_DewPointDepression_IsbL-0750_LatLon0.15_PT036H.grib2 2026-04-24 16:04 1.1M
20260424T12Z_MSC_GDPS_DewPointDepression_IsbL-0800_LatLon0.15_PT036H.grib2 2026-04-24 16:04 1.2M
20260424T12Z_MSC_GDPS_DewPointDepression_IsbL-0850_LatLon0.15_PT036H.grib2 2026-04-24 16:04 1.1M
20260424T12Z_MSC_GDPS_DewPointDepression_IsbL-0875_LatLon0.15_PT036H.grib2 2026-04-24 16:04 1.1M
20260424T12Z_MSC_GDPS_DewPointDepression_IsbL-0900_LatLon0.15_PT036H.grib2 2026-04-24 16:04 1.1M
20260424T12Z_MSC_GDPS_DewPointDepression_IsbL-0925_LatLon0.15_PT036H.grib2 2026-04-24 16:04 1.0M
20260424T12Z_MSC_GDPS_DewPointDepression_IsbL-0950_LatLon0.15_PT036H.grib2 2026-04-24 16:04 1.0M
20260424T12Z_MSC_GDPS_DewPointDepression_IsbL-0970_LatLon0.15_PT036H.grib2 2026-04-24 16:04 1.0M
20260424T12Z_MSC_GDPS_DewPointDepression_IsbL-0985_LatLon0.15_PT036H.grib2 2026-04-24 16:04 1.0M
20260424T12Z_MSC_GDPS_DewPointDepression_IsbL-1000_LatLon0.15_PT036H.grib2 2026-04-24 16:04 1.0M
20260424T12Z_MSC_GDPS_DewPointDepression_IsbL-1015_LatLon0.15_PT036H.grib2 2026-04-24 16:04 913K
20260424T12Z_MSC_GDPS_DewPoint_AGL-2m_LatLon0.15_PT036H.grib2 2026-04-24 16:04 605K
20260424T12Z_MSC_GDPS_DownwardLongwaveRadiationFlux-Accum_Sfc_LatLon0.15_PT036H.grib2 2026-04-24 16:04 726K
20260424T12Z_MSC_GDPS_DownwardShortwaveRadiationFlux-Accum_NTAtm_LatLon0.15_PT036H.grib2 2026-04-24 16:04 308K
20260424T12Z_MSC_GDPS_DownwardShortwaveRadiationFlux-Accum_Sfc_LatLon0.15_PT036H.grib2 2026-04-24 16:04 962K
20260424T12Z_MSC_GDPS_FreezingRain-Accum12h_Sfc_LatLon0.15_PT036H.grib2 2026-04-24 16:04 129K
20260424T12Z_MSC_GDPS_FreezingRain-Accum1h_Sfc_LatLon0.15_PT036H.grib2 2026-04-24 16:04 55K
20260424T12Z_MSC_GDPS_FreezingRain-Accum24h_Sfc_LatLon0.15_PT036H.grib2 2026-04-24 16:04 169K
20260424T12Z_MSC_GDPS_FreezingRain-Accum3h_Sfc_LatLon0.15_PT036H.grib2 2026-04-24 16:04 71K
20260424T12Z_MSC_GDPS_FreezingRain-Accum6h_Sfc_LatLon0.15_PT036H.grib2 2026-04-24 16:04 87K
20260424T12Z_MSC_GDPS_FreezingRain-Accum_Sfc_LatLon0.15_PT036H.grib2 2026-04-24 16:04 249K
20260424T12Z_MSC_GDPS_GeopotentialHeight_IsbL-0001_LatLon0.15_PT036H.grib2 2026-04-24 16:04 398K
20260424T12Z_MSC_GDPS_GeopotentialHeight_IsbL-0005_LatLon0.15_PT036H.grib2 2026-04-24 16:04 499K
20260424T12Z_MSC_GDPS_GeopotentialHeight_IsbL-0010_LatLon0.15_PT036H.grib2 2026-04-24 16:04 481K
20260424T12Z_MSC_GDPS_GeopotentialHeight_IsbL-0020_LatLon0.15_PT036H.grib2 2026-04-24 16:04 417K
20260424T12Z_MSC_GDPS_GeopotentialHeight_IsbL-0030_LatLon0.15_PT036H.grib2 2026-04-24 16:04 573K
20260424T12Z_MSC_GDPS_GeopotentialHeight_IsbL-0050_LatLon0.15_PT036H.grib2 2026-04-24 16:04 570K
20260424T12Z_MSC_GDPS_GeopotentialHeight_IsbL-0100_LatLon0.15_PT036H.grib2 2026-04-24 16:04 604K
20260424T12Z_MSC_GDPS_GeopotentialHeight_IsbL-0150_LatLon0.15_PT036H.grib2 2026-04-24 16:04 622K
20260424T12Z_MSC_GDPS_GeopotentialHeight_IsbL-0175_LatLon0.15_PT036H.grib2 2026-04-24 16:04 628K
20260424T12Z_MSC_GDPS_GeopotentialHeight_IsbL-0200_LatLon0.15_PT036H.grib2 2026-04-24 16:04 633K
20260424T12Z_MSC_GDPS_GeopotentialHeight_IsbL-0225_LatLon0.15_PT036H.grib2 2026-04-24 16:04 636K
20260424T12Z_MSC_GDPS_GeopotentialHeight_IsbL-0250_LatLon0.15_PT036H.grib2 2026-04-24 16:04 639K
20260424T12Z_MSC_GDPS_GeopotentialHeight_IsbL-0275_LatLon0.15_PT036H.grib2 2026-04-24 16:04 640K
20260424T12Z_MSC_GDPS_GeopotentialHeight_IsbL-0300_LatLon0.15_PT036H.grib2 2026-04-24 16:04 640K
20260424T12Z_MSC_GDPS_GeopotentialHeight_IsbL-0350_LatLon0.15_PT036H.grib2 2026-04-24 16:04 631K
20260424T12Z_MSC_GDPS_GeopotentialHeight_IsbL-0400_LatLon0.15_PT036H.grib2 2026-04-24 16:04 623K
20260424T12Z_MSC_GDPS_GeopotentialHeight_IsbL-0450_LatLon0.15_PT036H.grib2 2026-04-24 16:04 612K
20260424T12Z_MSC_GDPS_GeopotentialHeight_IsbL-0500_LatLon0.15_PT036H.grib2 2026-04-24 16:04 531K
20260424T12Z_MSC_GDPS_GeopotentialHeight_IsbL-0550_LatLon0.15_PT036H.grib2 2026-04-24 16:04 525K
20260424T12Z_MSC_GDPS_GeopotentialHeight_IsbL-0600_LatLon0.15_PT036H.grib2 2026-04-24 16:04 689K
20260424T12Z_MSC_GDPS_GeopotentialHeight_IsbL-0650_LatLon0.15_PT036H.grib2 2026-04-24 16:04 684K
20260424T12Z_MSC_GDPS_GeopotentialHeight_IsbL-0700_LatLon0.15_PT036H.grib2 2026-04-24 16:04 682K
20260424T12Z_MSC_GDPS_GeopotentialHeight_IsbL-0750_LatLon0.15_PT036H.grib2 2026-04-24 16:04 687K
20260424T12Z_MSC_GDPS_GeopotentialHeight_IsbL-0800_LatLon0.15_PT036H.grib2 2026-04-24 16:04 694K
20260424T12Z_MSC_GDPS_GeopotentialHeight_IsbL-0850_LatLon0.15_PT036H.grib2 2026-04-24 16:04 699K
20260424T12Z_MSC_GDPS_GeopotentialHeight_IsbL-0875_LatLon0.15_PT036H.grib2 2026-04-24 16:04 709K
20260424T12Z_MSC_GDPS_GeopotentialHeight_IsbL-0900_LatLon0.15_PT036H.grib2 2026-04-24 16:04 717K
20260424T12Z_MSC_GDPS_GeopotentialHeight_IsbL-0925_LatLon0.15_PT036H.grib2 2026-04-24 16:04 724K
20260424T12Z_MSC_GDPS_GeopotentialHeight_IsbL-0950_LatLon0.15_PT036H.grib2 2026-04-24 16:04 729K
20260424T12Z_MSC_GDPS_GeopotentialHeight_IsbL-0970_LatLon0.15_PT036H.grib2 2026-04-24 16:04 742K
20260424T12Z_MSC_GDPS_GeopotentialHeight_IsbL-0985_LatLon0.15_PT036H.grib2 2026-04-24 16:04 760K
20260424T12Z_MSC_GDPS_GeopotentialHeight_IsbL-1000_LatLon0.15_PT036H.grib2 2026-04-24 16:04 781K
20260424T12Z_MSC_GDPS_GeopotentialHeight_IsbL-1015_LatLon0.15_PT036H.grib2 2026-04-24 16:04 802K
20260424T12Z_MSC_GDPS_Humidex_Sfc_LatLon0.15_PT036H.grib2 2026-04-24 16:04 5.3M
20260424T12Z_MSC_GDPS_IcePellets-Accum12h_Sfc_LatLon0.15_PT036H.grib2 2026-04-24 16:04 49K
20260424T12Z_MSC_GDPS_IcePellets-Accum1h_Sfc_LatLon0.15_PT036H.grib2 2026-04-24 16:04 19K
20260424T12Z_MSC_GDPS_IcePellets-Accum24h_Sfc_LatLon0.15_PT036H.grib2 2026-04-24 16:04 70K
20260424T12Z_MSC_GDPS_IcePellets-Accum3h_Sfc_LatLon0.15_PT036H.grib2 2026-04-24 16:04 24K
20260424T12Z_MSC_GDPS_IcePellets-Accum6h_Sfc_LatLon0.15_PT036H.grib2 2026-04-24 16:04 32K
20260424T12Z_MSC_GDPS_IcePellets-Accum_Sfc_LatLon0.15_PT036H.grib2 2026-04-24 16:04 78K
20260424T12Z_MSC_GDPS_KIndex_Sfc_LatLon0.15_PT036H.grib2 2026-04-24 16:04 6.0M
20260424T12Z_MSC_GDPS_LatentHeatNetFlux_Sfc_LatLon0.15_PT036H.grib2 2026-04-24 16:04 652K
20260424T12Z_MSC_GDPS_LiftedIndex-MU-VT_IsbL-0500_LatLon0.15_PT036H.grib2 2026-04-24 16:04 5.4M
20260424T12Z_MSC_GDPS_NetLongwaveRadiationFlux-Accum_Sfc_LatLon0.15_PT036H.grib2 2026-04-24 16:04 1.0M
20260424T12Z_MSC_GDPS_NetShortwaveRadiationFlux-Accum_Sfc_LatLon0.15_PT036H.grib2 2026-04-24 16:04 939K
20260424T12Z_MSC_GDPS_O3MixingRatio_LatLon0.15_PT036H.grib2 2026-04-24 16:49 2.3M
20260424T12Z_MSC_GDPS_O3_EAtm_LatLon0.15_PT036H.grib2 2026-04-24 16:49 2.5M
20260424T12Z_MSC_GDPS_PlanetaryBoundaryLayerHeight_Sfc_LatLon0.15_PT036H.grib2 2026-04-24 16:04 2.4M
20260424T12Z_MSC_GDPS_Precip-Accum12h_Sfc_LatLon0.15_PT036H.grib2 2026-04-24 16:04 4.1M
20260424T12Z_MSC_GDPS_Precip-Accum1h_Sfc_LatLon0.15_PT036H.grib2 2026-04-24 16:04 3.3M
20260424T12Z_MSC_GDPS_Precip-Accum24h_Sfc_LatLon0.15_PT036H.grib2 2026-04-24 16:04 4.3M
20260424T12Z_MSC_GDPS_Precip-Accum3h_Sfc_LatLon0.15_PT036H.grib2 2026-04-24 16:04 3.5M
20260424T12Z_MSC_GDPS_Precip-Accum6h_Sfc_LatLon0.15_PT036H.grib2 2026-04-24 16:04 3.6M
20260424T12Z_MSC_GDPS_Precip-Accum_Sfc_LatLon0.15_PT036H.grib2 2026-04-24 16:04 4.3M
20260424T12Z_MSC_GDPS_PrecipRate_Sfc_LatLon0.15_PT036H.grib2 2026-04-24 16:04 3.1M
20260424T12Z_MSC_GDPS_PrecipType-Instant_Sfc_LatLon0.15_PT036H.grib2 2026-04-24 16:04 1.6M
20260424T12Z_MSC_GDPS_Pressure_MSL_LatLon0.15_PT036H.grib2 2026-04-24 16:04 717K
20260424T12Z_MSC_GDPS_Pressure_PVU-1.5_LatLon0.15_PT036H.grib2 2026-04-24 16:04 5.8M
20260424T12Z_MSC_GDPS_Pressure_PVU-1_LatLon0.15_PT036H.grib2 2026-04-24 16:04 6.0M
20260424T12Z_MSC_GDPS_Pressure_PVU-2_LatLon0.15_PT036H.grib2 2026-04-24 16:04 5.6M
20260424T12Z_MSC_GDPS_Pressure_Sfc_LatLon0.15_PT036H.grib2 2026-04-24 16:04 1.1M
20260424T12Z_MSC_GDPS_RadiativeTemp_Sfc_LatLon0.15_PT036H.grib2 2026-04-24 16:04 658K
20260424T12Z_MSC_GDPS_Rain-Accum12h_Sfc_LatLon0.15_PT036H.grib2 2026-04-24 16:04 2.8M
20260424T12Z_MSC_GDPS_Rain-Accum1h_Sfc_LatLon0.15_PT036H.grib2 2026-04-24 16:04 1.6M
20260424T12Z_MSC_GDPS_Rain-Accum24h_Sfc_LatLon0.15_PT036H.grib2 2026-04-24 16:04 2.9M
20260424T12Z_MSC_GDPS_Rain-Accum3h_Sfc_LatLon0.15_PT036H.grib2 2026-04-24 16:04 1.7M
20260424T12Z_MSC_GDPS_Rain-Accum6h_Sfc_LatLon0.15_PT036H.grib2 2026-04-24 16:04 2.3M
20260424T12Z_MSC_GDPS_Rain-Accum_Sfc_LatLon0.15_PT036H.grib2 2026-04-24 16:04 3.2M
20260424T12Z_MSC_GDPS_RelativeHumidity_AGL-2m_LatLon0.15_PT036H.grib2 2026-04-24 16:04 1.0M
20260424T12Z_MSC_GDPS_RelativeHumidity_IsbL-0010_LatLon0.15_PT036H.grib2 2026-04-24 16:04 274K
20260424T12Z_MSC_GDPS_RelativeHumidity_IsbL-0020_LatLon0.15_PT036H.grib2 2026-04-24 16:04 286K
20260424T12Z_MSC_GDPS_RelativeHumidity_IsbL-0030_LatLon0.15_PT036H.grib2 2026-04-24 16:04 352K
20260424T12Z_MSC_GDPS_RelativeHumidity_IsbL-0050_LatLon0.15_PT036H.grib2 2026-04-24 16:04 335K
20260424T12Z_MSC_GDPS_RelativeHumidity_IsbL-0100_LatLon0.15_PT036H.grib2 2026-04-24 16:04 498K
20260424T12Z_MSC_GDPS_RelativeHumidity_IsbL-0150_LatLon0.15_PT036H.grib2 2026-04-24 16:04 654K
20260424T12Z_MSC_GDPS_RelativeHumidity_IsbL-0175_LatLon0.15_PT036H.grib2 2026-04-24 16:04 773K
20260424T12Z_MSC_GDPS_RelativeHumidity_IsbL-0200_LatLon0.15_PT036H.grib2 2026-04-24 16:04 688K
20260424T12Z_MSC_GDPS_RelativeHumidity_IsbL-0225_LatLon0.15_PT036H.grib2 2026-04-24 16:04 775K
20260424T12Z_MSC_GDPS_RelativeHumidity_IsbL-0250_LatLon0.15_PT036H.grib2 2026-04-24 16:04 858K
20260424T12Z_MSC_GDPS_RelativeHumidity_IsbL-0275_LatLon0.15_PT036H.grib2 2026-04-24 16:04 887K
20260424T12Z_MSC_GDPS_RelativeHumidity_IsbL-0300_LatLon0.15_PT036H.grib2 2026-04-24 16:04 937K
20260424T12Z_MSC_GDPS_RelativeHumidity_IsbL-0350_LatLon0.15_PT036H.grib2 2026-04-24 16:04 963K
20260424T12Z_MSC_GDPS_RelativeHumidity_IsbL-0400_LatLon0.15_PT036H.grib2 2026-04-24 16:04 1.0M
20260424T12Z_MSC_GDPS_RelativeHumidity_IsbL-0450_LatLon0.15_PT036H.grib2 2026-04-24 16:04 1.0M
20260424T12Z_MSC_GDPS_RelativeHumidity_IsbL-0500_LatLon0.15_PT036H.grib2 2026-04-24 16:04 1.0M
20260424T12Z_MSC_GDPS_RelativeHumidity_IsbL-0550_LatLon0.15_PT036H.grib2 2026-04-24 16:04 1.1M
20260424T12Z_MSC_GDPS_RelativeHumidity_IsbL-0600_LatLon0.15_PT036H.grib2 2026-04-24 16:04 1.1M
20260424T12Z_MSC_GDPS_RelativeHumidity_IsbL-0650_LatLon0.15_PT036H.grib2 2026-04-24 16:04 1.1M
20260424T12Z_MSC_GDPS_RelativeHumidity_IsbL-0700_LatLon0.15_PT036H.grib2 2026-04-24 16:04 1.1M
20260424T12Z_MSC_GDPS_RelativeHumidity_IsbL-0750_LatLon0.15_PT036H.grib2 2026-04-24 16:04 1.2M
20260424T12Z_MSC_GDPS_RelativeHumidity_IsbL-0800_LatLon0.15_PT036H.grib2 2026-04-24 16:04 1.3M
20260424T12Z_MSC_GDPS_RelativeHumidity_IsbL-0850_LatLon0.15_PT036H.grib2 2026-04-24 16:04 1.3M
20260424T12Z_MSC_GDPS_RelativeHumidity_IsbL-0875_LatLon0.15_PT036H.grib2 2026-04-24 16:04 1.3M
20260424T12Z_MSC_GDPS_RelativeHumidity_IsbL-0900_LatLon0.15_PT036H.grib2 2026-04-24 16:04 1.2M
20260424T12Z_MSC_GDPS_RelativeHumidity_IsbL-0925_LatLon0.15_PT036H.grib2 2026-04-24 16:04 1.2M
20260424T12Z_MSC_GDPS_RelativeHumidity_IsbL-0950_LatLon0.15_PT036H.grib2 2026-04-24 16:04 1.2M
20260424T12Z_MSC_GDPS_RelativeHumidity_IsbL-0970_LatLon0.15_PT036H.grib2 2026-04-24 16:04 1.2M
20260424T12Z_MSC_GDPS_RelativeHumidity_IsbL-0985_LatLon0.15_PT036H.grib2 2026-04-24 16:04 1.2M
20260424T12Z_MSC_GDPS_RelativeHumidity_IsbL-1000_LatLon0.15_PT036H.grib2 2026-04-24 16:04 1.1M
20260424T12Z_MSC_GDPS_RelativeHumidity_IsbL-1015_LatLon0.15_PT036H.grib2 2026-04-24 16:04 1.0M
20260424T12Z_MSC_GDPS_RelativeVorticity_IsbL-0200_LatLon0.15_PT036H.grib2 2026-04-24 16:04 1.5M
20260424T12Z_MSC_GDPS_RelativeVorticity_IsbL-0250_LatLon0.15_PT036H.grib2 2026-04-24 16:04 1.3M
20260424T12Z_MSC_GDPS_RelativeVorticity_IsbL-0500_LatLon0.15_PT036H.grib2 2026-04-24 16:04 1.5M
20260424T12Z_MSC_GDPS_RelativeVorticity_IsbL-0700_LatLon0.15_PT036H.grib2 2026-04-24 16:04 1.6M
20260424T12Z_MSC_GDPS_RelativeVorticity_IsbL-0850_LatLon0.15_PT036H.grib2 2026-04-24 16:04 1.6M
20260424T12Z_MSC_GDPS_Runoff-Accum_Sfc_LatLon0.15_PT036H.grib2 2026-04-24 16:04 132K
20260424T12Z_MSC_GDPS_SensibleHeatNetFlux_Sfc_LatLon0.15_PT036H.grib2 2026-04-24 16:04 438K
20260424T12Z_MSC_GDPS_ShowalterIndex_IsbL-0500_LatLon0.15_PT036H.grib2 2026-04-24 16:04 6.2M
20260424T12Z_MSC_GDPS_Snow-Accum12h_Sfc_LatLon0.15_PT036H.grib2 2026-04-24 16:04 1.6M
20260424T12Z_MSC_GDPS_Snow-Accum1h_Sfc_LatLon0.15_PT036H.grib2 2026-04-24 16:04 1.3M
20260424T12Z_MSC_GDPS_Snow-Accum24h_Sfc_LatLon0.15_PT036H.grib2 2026-04-24 16:04 1.7M
20260424T12Z_MSC_GDPS_Snow-Accum3h_Sfc_LatLon0.15_PT036H.grib2 2026-04-24 16:04 1.1M
20260424T12Z_MSC_GDPS_Snow-Accum6h_Sfc_LatLon0.15_PT036H.grib2 2026-04-24 16:04 1.5M
20260424T12Z_MSC_GDPS_Snow-Accum_Sfc_LatLon0.15_PT036H.grib2 2026-04-24 16:04 1.9M
20260424T12Z_MSC_GDPS_SnowDensity_Sfc_LatLon0.15_PT036H.grib2 2026-04-24 16:04 264K
20260424T12Z_MSC_GDPS_SnowDepth_Sfc_LatLon0.15_PT036H.grib2 2026-04-24 16:04 1.8M
20260424T12Z_MSC_GDPS_SoilTemp_DBS-0to10cm_LatLon0.15_PT036H.grib2 2026-04-24 16:04 503K
20260424T12Z_MSC_GDPS_SoilTemp_Sfc_LatLon0.15_PT036H.grib2 2026-04-24 16:04 576K
20260424T12Z_MSC_GDPS_SoilVolumetricIceContent_Sfc_LatLon0.15_PT036H.grib2 2026-04-24 16:04 214K
20260424T12Z_MSC_GDPS_SoilVolumetricWaterContent_DBS-0to10cm_LatLon0.15_PT036H.grib2 2026-04-24 16:04 563K
20260424T12Z_MSC_GDPS_SoilVolumetricWaterContent_DBS-0to1cm_LatLon0.15_PT036H.grib2 2026-04-24 16:04 651K
20260424T12Z_MSC_GDPS_SpecificHumidity_AGL-120m_LatLon0.15_PT036H.grib2 2026-04-24 16:04 1.1M
20260424T12Z_MSC_GDPS_SpecificHumidity_AGL-2m_LatLon0.15_PT036H.grib2 2026-04-24 16:04 1.2M
20260424T12Z_MSC_GDPS_SpecificHumidity_AGL-40m_LatLon0.15_PT036H.grib2 2026-04-24 16:04 1.1M
20260424T12Z_MSC_GDPS_SpecificHumidity_AGL-80m_LatLon0.15_PT036H.grib2 2026-04-24 16:04 1.1M
20260424T12Z_MSC_GDPS_SpecificHumidity_IsbL-0001_LatLon0.15_PT036H.grib2 2026-04-24 16:04 1.3M
20260424T12Z_MSC_GDPS_SpecificHumidity_IsbL-0005_LatLon0.15_PT036H.grib2 2026-04-24 16:04 1.2M
20260424T12Z_MSC_GDPS_SpecificHumidity_IsbL-0010_LatLon0.15_PT036H.grib2 2026-04-24 16:04 1.3M
20260424T12Z_MSC_GDPS_SpecificHumidity_IsbL-0020_LatLon0.15_PT036H.grib2 2026-04-24 16:04 1.4M
20260424T12Z_MSC_GDPS_SpecificHumidity_IsbL-0030_LatLon0.15_PT036H.grib2 2026-04-24 16:04 1.4M
20260424T12Z_MSC_GDPS_SpecificHumidity_IsbL-0050_LatLon0.15_PT036H.grib2 2026-04-24 16:04 1.4M
20260424T12Z_MSC_GDPS_SpecificHumidity_IsbL-0100_LatLon0.15_PT036H.grib2 2026-04-24 16:04 1.1M
20260424T12Z_MSC_GDPS_SpecificHumidity_IsbL-0150_LatLon0.15_PT036H.grib2 2026-04-24 16:04 1.0M
20260424T12Z_MSC_GDPS_SpecificHumidity_IsbL-0175_LatLon0.15_PT036H.grib2 2026-04-24 16:04 1.3M
20260424T12Z_MSC_GDPS_SpecificHumidity_IsbL-0200_LatLon0.15_PT036H.grib2 2026-04-24 16:04 1.3M
20260424T12Z_MSC_GDPS_SpecificHumidity_IsbL-0225_LatLon0.15_PT036H.grib2 2026-04-24 16:04 1.3M
20260424T12Z_MSC_GDPS_SpecificHumidity_IsbL-0250_LatLon0.15_PT036H.grib2 2026-04-24 16:04 1.4M
20260424T12Z_MSC_GDPS_SpecificHumidity_IsbL-0275_LatLon0.15_PT036H.grib2 2026-04-24 16:04 1.3M
20260424T12Z_MSC_GDPS_SpecificHumidity_IsbL-0300_LatLon0.15_PT036H.grib2 2026-04-24 16:04 1.2M
20260424T12Z_MSC_GDPS_SpecificHumidity_IsbL-0350_LatLon0.15_PT036H.grib2 2026-04-24 16:04 1.2M
20260424T12Z_MSC_GDPS_SpecificHumidity_IsbL-0400_LatLon0.15_PT036H.grib2 2026-04-24 16:04 1.5M
20260424T12Z_MSC_GDPS_SpecificHumidity_IsbL-0450_LatLon0.15_PT036H.grib2 2026-04-24 16:04 1.6M
20260424T12Z_MSC_GDPS_SpecificHumidity_IsbL-0500_LatLon0.15_PT036H.grib2 2026-04-24 16:04 1.4M
20260424T12Z_MSC_GDPS_SpecificHumidity_IsbL-0550_LatLon0.15_PT036H.grib2 2026-04-24 16:04 1.6M
20260424T12Z_MSC_GDPS_SpecificHumidity_IsbL-0600_LatLon0.15_PT036H.grib2 2026-04-24 16:04 1.7M
20260424T12Z_MSC_GDPS_SpecificHumidity_IsbL-0650_LatLon0.15_PT036H.grib2 2026-04-24 16:04 1.5M
20260424T12Z_MSC_GDPS_SpecificHumidity_IsbL-0700_LatLon0.15_PT036H.grib2 2026-04-24 16:04 1.6M
20260424T12Z_MSC_GDPS_SpecificHumidity_IsbL-0750_LatLon0.15_PT036H.grib2 2026-04-24 16:04 1.7M
20260424T12Z_MSC_GDPS_SpecificHumidity_IsbL-0800_LatLon0.15_PT036H.grib2 2026-04-24 16:04 1.8M
20260424T12Z_MSC_GDPS_SpecificHumidity_IsbL-0850_LatLon0.15_PT036H.grib2 2026-04-24 16:04 1.9M
20260424T12Z_MSC_GDPS_SpecificHumidity_IsbL-0875_LatLon0.15_PT036H.grib2 2026-04-24 16:04 1.9M
20260424T12Z_MSC_GDPS_SpecificHumidity_IsbL-0900_LatLon0.15_PT036H.grib2 2026-04-24 16:04 1.9M
20260424T12Z_MSC_GDPS_SpecificHumidity_IsbL-0925_LatLon0.15_PT036H.grib2 2026-04-24 16:04 1.6M
20260424T12Z_MSC_GDPS_SpecificHumidity_IsbL-0950_LatLon0.15_PT036H.grib2 2026-04-24 16:04 1.5M
20260424T12Z_MSC_GDPS_SpecificHumidity_IsbL-0970_LatLon0.15_PT036H.grib2 2026-04-24 16:04 1.5M
20260424T12Z_MSC_GDPS_SpecificHumidity_IsbL-0985_LatLon0.15_PT036H.grib2 2026-04-24 16:04 1.5M
20260424T12Z_MSC_GDPS_SpecificHumidity_IsbL-1000_LatLon0.15_PT036H.grib2 2026-04-24 16:04 1.5M
20260424T12Z_MSC_GDPS_SpecificHumidity_IsbL-1015_LatLon0.15_PT036H.grib2 2026-04-24 16:04 1.4M
20260424T12Z_MSC_GDPS_SpecificHumidity_Sfc_LatLon0.15_PT036H.grib2 2026-04-24 16:04 629K
20260424T12Z_MSC_GDPS_Thickness_IsbL-0850to0700_LatLon0.15_PT036H.grib2 2026-04-24 16:04 460K
20260424T12Z_MSC_GDPS_Thickness_IsbL-1000to0500_LatLon0.15_PT036H.grib2 2026-04-24 16:04 368K
20260424T12Z_MSC_GDPS_Thickness_IsbL-1000to0850_LatLon0.15_PT036H.grib2 2026-04-24 16:04 485K
20260424T12Z_MSC_GDPS_TotalCloudCover_Sfc_LatLon0.15_PT036H.grib2 2026-04-24 16:04 837K
20260424T12Z_MSC_GDPS_TotalTotalsIndex_Sfc_LatLon0.15_PT036H.grib2 2026-04-24 16:04 6.2M
20260424T12Z_MSC_GDPS_UVIndex-ClearSky_Sfc_LatLon0.15_PT036H.grib2 2026-04-24 16:49 1.0M
20260424T12Z_MSC_GDPS_UVIndex_Sfc_LatLon0.15_PT036H.grib2 2026-04-24 16:49 1.5M
20260424T12Z_MSC_GDPS_UpwardLongwaveRadiationFlux_NTAtm_LatLon0.15_PT036H.grib2 2026-04-24 16:04 1.1M
20260424T12Z_MSC_GDPS_VerticalVelocity_IsbL-0200_LatLon0.15_PT036H.grib2 2026-04-24 16:04 933K
20260424T12Z_MSC_GDPS_VerticalVelocity_IsbL-0250_LatLon0.15_PT036H.grib2 2026-04-24 16:04 1.0M
20260424T12Z_MSC_GDPS_VerticalVelocity_IsbL-0500_LatLon0.15_PT036H.grib2 2026-04-24 16:04 1.3M
20260424T12Z_MSC_GDPS_VerticalVelocity_IsbL-0600_LatLon0.15_PT036H.grib2 2026-04-24 16:04 1.3M
20260424T12Z_MSC_GDPS_VerticalVelocity_IsbL-0700_LatLon0.15_PT036H.grib2 2026-04-24 16:04 1.1M
20260424T12Z_MSC_GDPS_VerticalVelocity_IsbL-0850_LatLon0.15_PT036H.grib2 2026-04-24 16:04 1.3M
20260424T12Z_MSC_GDPS_WindChill_Sfc_LatLon0.15_PT036H.grib2 2026-04-24 16:04 5.3M
20260424T12Z_MSC_GDPS_WindDir_AGL-10m_LatLon0.15_PT036H.grib2 2026-04-24 16:04 1.3M
20260424T12Z_MSC_GDPS_WindDir_AGL-120m_LatLon0.15_PT036H.grib2 2026-04-24 16:04 1.4M
20260424T12Z_MSC_GDPS_WindDir_AGL-40m_LatLon0.15_PT036H.grib2 2026-04-24 16:04 1.4M
20260424T12Z_MSC_GDPS_WindDir_AGL-80m_LatLon0.15_PT036H.grib2 2026-04-24 16:04 1.4M
20260424T12Z_MSC_GDPS_WindDir_IsbL-0001_LatLon0.15_PT036H.grib2 2026-04-24 16:04 660K
20260424T12Z_MSC_GDPS_WindDir_IsbL-0005_LatLon0.15_PT036H.grib2 2026-04-24 16:04 819K
20260424T12Z_MSC_GDPS_WindDir_IsbL-0010_LatLon0.15_PT036H.grib2 2026-04-24 16:04 875K
20260424T12Z_MSC_GDPS_WindDir_IsbL-0020_LatLon0.15_PT036H.grib2 2026-04-24 16:04 964K
20260424T12Z_MSC_GDPS_WindDir_IsbL-0030_LatLon0.15_PT036H.grib2 2026-04-24 16:04 934K
20260424T12Z_MSC_GDPS_WindDir_IsbL-0050_LatLon0.15_PT036H.grib2 2026-04-24 16:04 970K
20260424T12Z_MSC_GDPS_WindDir_IsbL-0100_LatLon0.15_PT036H.grib2 2026-04-24 16:04 1.0M
20260424T12Z_MSC_GDPS_WindDir_IsbL-0150_LatLon0.15_PT036H.grib2 2026-04-24 16:04 1.0M
20260424T12Z_MSC_GDPS_WindDir_IsbL-0175_LatLon0.15_PT036H.grib2 2026-04-24 16:04 1.0M
20260424T12Z_MSC_GDPS_WindDir_IsbL-0200_LatLon0.15_PT036H.grib2 2026-04-24 16:04 1.1M
20260424T12Z_MSC_GDPS_WindDir_IsbL-0225_LatLon0.15_PT036H.grib2 2026-04-24 16:04 1.1M
20260424T12Z_MSC_GDPS_WindDir_IsbL-0250_LatLon0.15_PT036H.grib2 2026-04-24 16:04 1.1M
20260424T12Z_MSC_GDPS_WindDir_IsbL-0275_LatLon0.15_PT036H.grib2 2026-04-24 16:04 1.2M
20260424T12Z_MSC_GDPS_WindDir_IsbL-0300_LatLon0.15_PT036H.grib2 2026-04-24 16:04 1.2M
20260424T12Z_MSC_GDPS_WindDir_IsbL-0350_LatLon0.15_PT036H.grib2 2026-04-24 16:04 1.2M
20260424T12Z_MSC_GDPS_WindDir_IsbL-0400_LatLon0.15_PT036H.grib2 2026-04-24 16:04 1.3M
20260424T12Z_MSC_GDPS_WindDir_IsbL-0450_LatLon0.15_PT036H.grib2 2026-04-24 16:04 1.3M
20260424T12Z_MSC_GDPS_WindDir_IsbL-0500_LatLon0.15_PT036H.grib2 2026-04-24 16:04 1.4M
20260424T12Z_MSC_GDPS_WindDir_IsbL-0550_LatLon0.15_PT036H.grib2 2026-04-24 16:04 1.4M
20260424T12Z_MSC_GDPS_WindDir_IsbL-0600_LatLon0.15_PT036H.grib2 2026-04-24 16:04 1.5M
20260424T12Z_MSC_GDPS_WindDir_IsbL-0650_LatLon0.15_PT036H.grib2 2026-04-24 16:04 1.6M
20260424T12Z_MSC_GDPS_WindDir_IsbL-0700_LatLon0.15_PT036H.grib2 2026-04-24 16:04 1.6M
20260424T12Z_MSC_GDPS_WindDir_IsbL-0750_LatLon0.15_PT036H.grib2 2026-04-24 16:04 1.7M
20260424T12Z_MSC_GDPS_WindDir_IsbL-0800_LatLon0.15_PT036H.grib2 2026-04-24 16:04 1.8M
20260424T12Z_MSC_GDPS_WindDir_IsbL-0850_LatLon0.15_PT036H.grib2 2026-04-24 16:04 1.9M
20260424T12Z_MSC_GDPS_WindDir_IsbL-0875_LatLon0.15_PT036H.grib2 2026-04-24 16:04 2.0M
20260424T12Z_MSC_GDPS_WindDir_IsbL-0900_LatLon0.15_PT036H.grib2 2026-04-24 16:04 2.0M
20260424T12Z_MSC_GDPS_WindDir_IsbL-0925_LatLon0.15_PT036H.grib2 2026-04-24 16:04 2.0M
20260424T12Z_MSC_GDPS_WindDir_IsbL-0950_LatLon0.15_PT036H.grib2 2026-04-24 16:04 2.0M
20260424T12Z_MSC_GDPS_WindDir_IsbL-0970_LatLon0.15_PT036H.grib2 2026-04-24 16:04 2.0M
20260424T12Z_MSC_GDPS_WindDir_IsbL-0985_LatLon0.15_PT036H.grib2 2026-04-24 16:04 2.0M
20260424T12Z_MSC_GDPS_WindDir_IsbL-1000_LatLon0.15_PT036H.grib2 2026-04-24 16:04 2.1M
20260424T12Z_MSC_GDPS_WindDir_IsbL-1015_LatLon0.15_PT036H.grib2 2026-04-24 16:04 2.1M
20260424T12Z_MSC_GDPS_WindGust-Max_AGL-10m_LatLon0.15_PT036H.grib2 2026-04-24 16:04 2.2M
20260424T12Z_MSC_GDPS_WindGust-Min_AGL-10m_LatLon0.15_PT036H.grib2 2026-04-24 16:04 2.2M
20260424T12Z_MSC_GDPS_WindGust_AGL-10m_LatLon0.15_PT036H.grib2 2026-04-24 16:04 2.2M
20260424T12Z_MSC_GDPS_WindSpeed_AGL-10m_LatLon0.15_PT036H.grib2 2026-04-24 16:04 1.1M
20260424T12Z_MSC_GDPS_WindSpeed_AGL-120m_LatLon0.15_PT036H.grib2 2026-04-24 16:04 1.3M
20260424T12Z_MSC_GDPS_WindSpeed_AGL-40m_LatLon0.15_PT036H.grib2 2026-04-24 16:04 1.2M
20260424T12Z_MSC_GDPS_WindSpeed_AGL-80m_LatLon0.15_PT036H.grib2 2026-04-24 16:04 1.3M
20260424T12Z_MSC_GDPS_WindSpeed_IsbL-0001_LatLon0.15_PT036H.grib2 2026-04-24 16:04 641K
20260424T12Z_MSC_GDPS_WindSpeed_IsbL-0005_LatLon0.15_PT036H.grib2 2026-04-24 16:04 699K
20260424T12Z_MSC_GDPS_WindSpeed_IsbL-0010_LatLon0.15_PT036H.grib2 2026-04-24 16:04 635K
20260424T12Z_MSC_GDPS_WindSpeed_IsbL-0020_LatLon0.15_PT036H.grib2 2026-04-24 16:04 865K
20260424T12Z_MSC_GDPS_WindSpeed_IsbL-0030_LatLon0.15_PT036H.grib2 2026-04-24 16:04 868K
20260424T12Z_MSC_GDPS_WindSpeed_IsbL-0050_LatLon0.15_PT036H.grib2 2026-04-24 16:04 1.0M
20260424T12Z_MSC_GDPS_WindSpeed_IsbL-0100_LatLon0.15_PT036H.grib2 2026-04-24 16:04 1.1M
20260424T12Z_MSC_GDPS_WindSpeed_IsbL-0150_LatLon0.15_PT036H.grib2 2026-04-24 16:04 1.0M
20260424T12Z_MSC_GDPS_WindSpeed_IsbL-0175_LatLon0.15_PT036H.grib2 2026-04-24 16:04 1.0M
20260424T12Z_MSC_GDPS_WindSpeed_IsbL-0200_LatLon0.15_PT036H.grib2 2026-04-24 16:04 1.1M
20260424T12Z_MSC_GDPS_WindSpeed_IsbL-0225_LatLon0.15_PT036H.grib2 2026-04-24 16:04 1.1M
20260424T12Z_MSC_GDPS_WindSpeed_IsbL-0250_LatLon0.15_PT036H.grib2 2026-04-24 16:04 1.1M
20260424T12Z_MSC_GDPS_WindSpeed_IsbL-0275_LatLon0.15_PT036H.grib2 2026-04-24 16:04 1.1M
20260424T12Z_MSC_GDPS_WindSpeed_IsbL-0300_LatLon0.15_PT036H.grib2 2026-04-24 16:04 1.1M
20260424T12Z_MSC_GDPS_WindSpeed_IsbL-0350_LatLon0.15_PT036H.grib2 2026-04-24 16:04 1.1M
20260424T12Z_MSC_GDPS_WindSpeed_IsbL-0400_LatLon0.15_PT036H.grib2 2026-04-24 16:04 1.1M
20260424T12Z_MSC_GDPS_WindSpeed_IsbL-0450_LatLon0.15_PT036H.grib2 2026-04-24 16:04 1.1M
20260424T12Z_MSC_GDPS_WindSpeed_IsbL-0500_LatLon0.15_PT036H.grib2 2026-04-24 16:04 1.1M
20260424T12Z_MSC_GDPS_WindSpeed_IsbL-0550_LatLon0.15_PT036H.grib2 2026-04-24 16:04 1.1M
20260424T12Z_MSC_GDPS_WindSpeed_IsbL-0600_LatLon0.15_PT036H.grib2 2026-04-24 16:04 1.1M
20260424T12Z_MSC_GDPS_WindSpeed_IsbL-0650_LatLon0.15_PT036H.grib2 2026-04-24 16:04 1.4M
20260424T12Z_MSC_GDPS_WindSpeed_IsbL-0700_LatLon0.15_PT036H.grib2 2026-04-24 16:04 1.5M
20260424T12Z_MSC_GDPS_WindSpeed_IsbL-0750_LatLon0.15_PT036H.grib2 2026-04-24 16:04 1.5M
20260424T12Z_MSC_GDPS_WindSpeed_IsbL-0800_LatLon0.15_PT036H.grib2 2026-04-24 16:04 1.6M
20260424T12Z_MSC_GDPS_WindSpeed_IsbL-0850_LatLon0.15_PT036H.grib2 2026-04-24 16:04 1.7M
20260424T12Z_MSC_GDPS_WindSpeed_IsbL-0875_LatLon0.15_PT036H.grib2 2026-04-24 16:04 1.8M
20260424T12Z_MSC_GDPS_WindSpeed_IsbL-0900_LatLon0.15_PT036H.grib2 2026-04-24 16:04 1.8M
20260424T12Z_MSC_GDPS_WindSpeed_IsbL-0925_LatLon0.15_PT036H.grib2 2026-04-24 16:04 1.8M
20260424T12Z_MSC_GDPS_WindSpeed_IsbL-0950_LatLon0.15_PT036H.grib2 2026-04-24 16:04 1.9M
20260424T12Z_MSC_GDPS_WindSpeed_IsbL-0970_LatLon0.15_PT036H.grib2 2026-04-24 16:04 1.9M
20260424T12Z_MSC_GDPS_WindSpeed_IsbL-0985_LatLon0.15_PT036H.grib2 2026-04-24 16:04 1.9M
20260424T12Z_MSC_GDPS_WindSpeed_IsbL-1000_LatLon0.15_PT036H.grib2 2026-04-24 16:04 1.9M
20260424T12Z_MSC_GDPS_WindSpeed_IsbL-1015_LatLon0.15_PT036H.grib2 2026-04-24 16:04 1.8M
20260424T12Z_MSC_GDPS_WindU_AGL-10m_LatLon0.15_PT036H.grib2 2026-04-24 16:04 1.3M
20260424T12Z_MSC_GDPS_WindU_AGL-120m_LatLon0.15_PT036H.grib2 2026-04-24 16:04 1.0M
20260424T12Z_MSC_GDPS_WindU_AGL-40m_LatLon0.15_PT036H.grib2 2026-04-24 16:04 973K
20260424T12Z_MSC_GDPS_WindU_AGL-80m_LatLon0.15_PT036H.grib2 2026-04-24 16:04 1.0M
20260424T12Z_MSC_GDPS_WindU_IsbL-0001_LatLon0.15_PT036H.grib2 2026-04-24 16:04 645K
20260424T12Z_MSC_GDPS_WindU_IsbL-0005_LatLon0.15_PT036H.grib2 2026-04-24 16:04 697K
20260424T12Z_MSC_GDPS_WindU_IsbL-0010_LatLon0.15_PT036H.grib2 2026-04-24 16:04 708K
20260424T12Z_MSC_GDPS_WindU_IsbL-0020_LatLon0.15_PT036H.grib2 2026-04-24 16:04 737K
20260424T12Z_MSC_GDPS_WindU_IsbL-0030_LatLon0.15_PT036H.grib2 2026-04-24 16:04 744K
20260424T12Z_MSC_GDPS_WindU_IsbL-0050_LatLon0.15_PT036H.grib2 2026-04-24 16:04 703K
20260424T12Z_MSC_GDPS_WindU_IsbL-0100_LatLon0.15_PT036H.grib2 2026-04-24 16:04 912K
20260424T12Z_MSC_GDPS_WindU_IsbL-0150_LatLon0.15_PT036H.grib2 2026-04-24 16:04 1.0M
20260424T12Z_MSC_GDPS_WindU_IsbL-0175_LatLon0.15_PT036H.grib2 2026-04-24 16:04 812K
20260424T12Z_MSC_GDPS_WindU_IsbL-0200_LatLon0.15_PT036H.grib2 2026-04-24 16:04 842K
20260424T12Z_MSC_GDPS_WindU_IsbL-0225_LatLon0.15_PT036H.grib2 2026-04-24 16:04 853K
20260424T12Z_MSC_GDPS_WindU_IsbL-0250_LatLon0.15_PT036H.grib2 2026-04-24 16:04 853K
20260424T12Z_MSC_GDPS_WindU_IsbL-0275_LatLon0.15_PT036H.grib2 2026-04-24 16:04 882K
20260424T12Z_MSC_GDPS_WindU_IsbL-0300_LatLon0.15_PT036H.grib2 2026-04-24 16:04 875K
20260424T12Z_MSC_GDPS_WindU_IsbL-0350_LatLon0.15_PT036H.grib2 2026-04-24 16:04 890K
20260424T12Z_MSC_GDPS_WindU_IsbL-0400_LatLon0.15_PT036H.grib2 2026-04-24 16:04 892K
20260424T12Z_MSC_GDPS_WindU_IsbL-0450_LatLon0.15_PT036H.grib2 2026-04-24 16:04 1.1M
20260424T12Z_MSC_GDPS_WindU_IsbL-0500_LatLon0.15_PT036H.grib2 2026-04-24 16:04 1.1M
20260424T12Z_MSC_GDPS_WindU_IsbL-0550_LatLon0.15_PT036H.grib2 2026-04-24 16:04 1.1M
20260424T12Z_MSC_GDPS_WindU_IsbL-0600_LatLon0.15_PT036H.grib2 2026-04-24 16:04 1.2M
20260424T12Z_MSC_GDPS_WindU_IsbL-0650_LatLon0.15_PT036H.grib2 2026-04-24 16:04 1.2M
20260424T12Z_MSC_GDPS_WindU_IsbL-0700_LatLon0.15_PT036H.grib2 2026-04-24 16:04 1.2M
20260424T12Z_MSC_GDPS_WindU_IsbL-0750_LatLon0.15_PT036H.grib2 2026-04-24 16:04 1.3M
20260424T12Z_MSC_GDPS_WindU_IsbL-0800_LatLon0.15_PT036H.grib2 2026-04-24 16:04 1.4M
20260424T12Z_MSC_GDPS_WindU_IsbL-0850_LatLon0.15_PT036H.grib2 2026-04-24 16:04 1.4M
20260424T12Z_MSC_GDPS_WindU_IsbL-0875_LatLon0.15_PT036H.grib2 2026-04-24 16:04 1.4M
20260424T12Z_MSC_GDPS_WindU_IsbL-0900_LatLon0.15_PT036H.grib2 2026-04-24 16:04 1.5M
20260424T12Z_MSC_GDPS_WindU_IsbL-0925_LatLon0.15_PT036H.grib2 2026-04-24 16:04 1.5M
20260424T12Z_MSC_GDPS_WindU_IsbL-0950_LatLon0.15_PT036H.grib2 2026-04-24 16:04 1.4M
20260424T12Z_MSC_GDPS_WindU_IsbL-0970_LatLon0.15_PT036H.grib2 2026-04-24 16:04 1.4M
20260424T12Z_MSC_GDPS_WindU_IsbL-0985_LatLon0.15_PT036H.grib2 2026-04-24 16:04 1.4M
20260424T12Z_MSC_GDPS_WindU_IsbL-1000_LatLon0.15_PT036H.grib2 2026-04-24 16:04 1.4M
20260424T12Z_MSC_GDPS_WindU_IsbL-1015_LatLon0.15_PT036H.grib2 2026-04-24 16:04 1.3M
20260424T12Z_MSC_GDPS_WindV_AGL-10m_LatLon0.15_PT036H.grib2 2026-04-24 16:04 1.3M
20260424T12Z_MSC_GDPS_WindV_AGL-120m_LatLon0.15_PT036H.grib2 2026-04-24 16:04 1.0M
20260424T12Z_MSC_GDPS_WindV_AGL-40m_LatLon0.15_PT036H.grib2 2026-04-24 16:04 1.0M
20260424T12Z_MSC_GDPS_WindV_AGL-80m_LatLon0.15_PT036H.grib2 2026-04-24 16:04 1.0M
20260424T12Z_MSC_GDPS_WindV_IsbL-0001_LatLon0.15_PT036H.grib2 2026-04-24 16:04 708K
20260424T12Z_MSC_GDPS_WindV_IsbL-0005_LatLon0.15_PT036H.grib2 2026-04-24 16:04 863K
20260424T12Z_MSC_GDPS_WindV_IsbL-0010_LatLon0.15_PT036H.grib2 2026-04-24 16:04 888K
20260424T12Z_MSC_GDPS_WindV_IsbL-0020_LatLon0.15_PT036H.grib2 2026-04-24 16:04 854K
20260424T12Z_MSC_GDPS_WindV_IsbL-0030_LatLon0.15_PT036H.grib2 2026-04-24 16:04 856K
20260424T12Z_MSC_GDPS_WindV_IsbL-0050_LatLon0.15_PT036H.grib2 2026-04-24 16:04 910K
20260424T12Z_MSC_GDPS_WindV_IsbL-0100_LatLon0.15_PT036H.grib2 2026-04-24 16:04 1.0M
20260424T12Z_MSC_GDPS_WindV_IsbL-0150_LatLon0.15_PT036H.grib2 2026-04-24 16:04 1.0M
20260424T12Z_MSC_GDPS_WindV_IsbL-0175_LatLon0.15_PT036H.grib2 2026-04-24 16:04 1.0M
20260424T12Z_MSC_GDPS_WindV_IsbL-0200_LatLon0.15_PT036H.grib2 2026-04-24 16:04 839K
20260424T12Z_MSC_GDPS_WindV_IsbL-0225_LatLon0.15_PT036H.grib2 2026-04-24 16:04 848K
20260424T12Z_MSC_GDPS_WindV_IsbL-0250_LatLon0.15_PT036H.grib2 2026-04-24 16:04 849K
20260424T12Z_MSC_GDPS_WindV_IsbL-0275_LatLon0.15_PT036H.grib2 2026-04-24 16:04 878K
20260424T12Z_MSC_GDPS_WindV_IsbL-0300_LatLon0.15_PT036H.grib2 2026-04-24 16:04 870K
20260424T12Z_MSC_GDPS_WindV_IsbL-0350_LatLon0.15_PT036H.grib2 2026-04-24 16:04 940K
20260424T12Z_MSC_GDPS_WindV_IsbL-0400_LatLon0.15_PT036H.grib2 2026-04-24 16:04 883K
20260424T12Z_MSC_GDPS_WindV_IsbL-0450_LatLon0.15_PT036H.grib2 2026-04-24 16:04 884K
20260424T12Z_MSC_GDPS_WindV_IsbL-0500_LatLon0.15_PT036H.grib2 2026-04-24 16:04 1.1M
20260424T12Z_MSC_GDPS_WindV_IsbL-0550_LatLon0.15_PT036H.grib2 2026-04-24 16:04 1.1M
20260424T12Z_MSC_GDPS_WindV_IsbL-0600_LatLon0.15_PT036H.grib2 2026-04-24 16:04 1.1M
20260424T12Z_MSC_GDPS_WindV_IsbL-0650_LatLon0.15_PT036H.grib2 2026-04-24 16:04 1.2M
20260424T12Z_MSC_GDPS_WindV_IsbL-0700_LatLon0.15_PT036H.grib2 2026-04-24 16:04 1.2M
20260424T12Z_MSC_GDPS_WindV_IsbL-0750_LatLon0.15_PT036H.grib2 2026-04-24 16:04 1.2M
20260424T12Z_MSC_GDPS_WindV_IsbL-0800_LatLon0.15_PT036H.grib2 2026-04-24 16:04 1.3M
20260424T12Z_MSC_GDPS_WindV_IsbL-0850_LatLon0.15_PT036H.grib2 2026-04-24 16:04 1.4M
20260424T12Z_MSC_GDPS_WindV_IsbL-0875_LatLon0.15_PT036H.grib2 2026-04-24 16:04 1.4M
20260424T12Z_MSC_GDPS_WindV_IsbL-0900_LatLon0.15_PT036H.grib2 2026-04-24 16:04 1.5M
20260424T12Z_MSC_GDPS_WindV_IsbL-0925_LatLon0.15_PT036H.grib2 2026-04-24 16:04 1.5M
20260424T12Z_MSC_GDPS_WindV_IsbL-0950_LatLon0.15_PT036H.grib2 2026-04-24 16:04 1.4M
20260424T12Z_MSC_GDPS_WindV_IsbL-0970_LatLon0.15_PT036H.grib2 2026-04-24 16:04 1.4M
20260424T12Z_MSC_GDPS_WindV_IsbL-0985_LatLon0.15_PT036H.grib2 2026-04-24 16:04 1.4M
20260424T12Z_MSC_GDPS_WindV_IsbL-1000_LatLon0.15_PT036H.grib2 2026-04-24 16:04 1.4M
20260424T12Z_MSC_GDPS_WindV_IsbL-1015_LatLon0.15_PT036H.grib2 2026-04-24 16:04 1.3M